Theta_e
309 309 309 309 309 309 310 309 310 310 310 310 310 310 310 311 311 311 311 311 311 311 312 311 311 311 311 311 312 313 314 314 314 314 315 314 314 315 314 314 314 314 314 314 313 314 314 314 315 315 316 316 316 317 317 319 317 318 327 325 321 326 325 324 326 319 317 320 317 315 316 314 316 317 316 317 316 316 316 316 316 316 315 316 315 315 315 315
309 309 309 309 309 309 309 309 310 310 310 310 310 310 310 311 311 311 311 311 311 311 311 311 311 311 311 312 312 313 313 314 314 315 314 314 314 314 314 314 315 315 314 315 314 313 314 314 315 315 316 315 316 317 317 319 317 321 327 320 324 334 324 319 321 316 315 317 315 315 315 314 315 315 315 316 316 315 315 316 316 315 315 315 315 315 315 315
310 309 309 309 309 309 309 309 310 309 310 310 310 310 310 310 310 311 311 311 311 311 311 311 311 311 311 312 312 313 313 314 314 314 314 314 314 314 315 315 315 315 314 315 314 313 314 315 315 315 315 315 316 317 318 319 318 318 320 322 333 328 316 315 316 315 316 316 314 314 314 314 315 315 314 315 315 315 315 315 315 315 315 315 315 315 314 315
310 310 310 309 310 309 310 310 310 310 310 310 310 310 310 310 310 310 310 311 310 311 311 311 311 311 311 312 312 312 313 314 315 314 314 314 314 314 315 316 315 316 315 314 314 314 314 315 315 315 316 316 315 317 317 319 318 316 318 327 329 316 315 318 316 317 316 315 314 313 314 314 315 315 314 315 315 316 315 315 315 315 315 315 315 315 314 314
311 310 310 310 310 310 310 310 310 310 310 310 310 310 310 310 310 310 310 311 311 311 310 310 311 311 311 311 312 312 313 316 316 314 314 314 314 315 316 316 316 315 314 314 314 314 314 315 315 315 316 315 315 316 316 317 317 317 319 321 319 313 316 318 316 318 316 315 314 313 314 315 315 315 314 315 315 316 315 316 316 315 315 314 314 314 314 314
311 311 310 310 310 310 310 310 310 309 310 310 310 310 310 310 310 310 310 310 310 310 310 311 310 311 312 312 313 313 314 316 315 314 315 315 315 316 316 315 316 315 314 314 314 314 314 315 315 315 315 314 314 315 315 316 317 319 320 316 316 316 316 318 317 317 316 316 314 313 314 314 313 314 314 314 314 316 316 316 315 314 314 314 314 314 314 314
311 311 311 310 310 310 310 309 309 309 309 309 310 310 309 310 310 310 310 310 310 310 311 311 311 312 312 313 314 316 316 316 315 316 316 316 316 316 316 316 316 315 314 314 313 314 314 314 315 314 315 314 313 314 314 315 315 319 320 316 316 316 314 316 316 315 315 314 314 313 313 312 312 314 314 313 315 316 316 315 314 314 314 314 314 314 314 314
310 310 310 310 310 310 309 309 309 309 309 309 309 309 309 310 310 310 310 310 311 311 312 312 313 313 315 316 317 318 318 318 317 318 317 317 317 317 317 316 316 315 314 314 313 313 313 314 315 314 314 313 313 313 313 313 314 317 320 315 313 314 314 315 314 314 315 314 314 313 311 312 313 313 312 313 316 316 315 315 314 314 314 314 313 313 313 313
309 309 309 309 309 309 309 309 309 309 309 309 309 309 310 310 310 311 311 312 313 313 314 315 316 317 318 318 318 319 319 319 320 321 320 319 319 319 318 317 315 315 314 314 314 313 314 314 314 314 313 313 313 313 312 314 315 315 316 313 312 313 313 314 314 314 314 313 313 312 312 313 312 312 312 315 317 316 315 314 314 314 313 314 313 313 313 313
308 308 308 308 308 309 309 309 309 309 309 309 310 310 311 312 312 313 314 315 316 317 318 318 319 319 318 317 316 318 320 320 321 321 321 321 321 320 319 317 315 314 314 315 314 313 314 314 314 314 314 314 314 313 312 314 315 313 312 312 312 313 313 313 313 314 313 312 312 313 313 312 311 312 315 317 316 314 314 313 313 313 313 313 313 313 313 313
307 308 308 308 308 308 308 309 309 310 311 311 312 313 314 315 316 317 317 318 318 318 318 318 317 316 315 315 314 317 319 320 319 319 319 320 320 320 319 317 314 315 317 317 316 315 314 314 315 315 315 315 313 313 312 313 313 312 312 313 312 311 313 313 313 313 313 313 313 313 313 312 311 313 317 317 315 314 312 312 312 312 312 312 312 313 313 313
308 308 309 309 309 310 310 311 312 313 315 316 317 318 318 318 318 318 318 317 317 317 316 316 315 314 314 313 313 316 318 318 317 317 317 317 318 319 317 315 315 316 318 317 317 316 314 315 315 315 316 314 314 313 313 313 313 313 312 314 315 314 315 314 312 312 311 313 313 312 315 317 315 316 318 316 315 313 311 311 312 312 312 312 312 312 312 313
311 311 311 311 312 313 314 315 316 318 318 319 319 318 318 317 317 316 316 316 316 316 315 315 314 314 313 313 315 317 317 317 317 317 316 316 317 317 317 316 317 317 317 317 317 316 315 315 315 316 315 314 314 314 314 313 312 314 312 312 315 316 319 314 310 311 311 313 313 312 317 325 324 318 316 314 313 313 312 311 311 311 312 311 311 312 312 312
314 315 315 316 317 317 318 319 319 318 318 317 317 316 316 316 315 315 315 315 315 315 315 315 315 315 314 314 316 317 317 317 316 316 316 316 316 316 316 316 316 316 316 316 316 316 315 315 315 316 315 315 314 313 315 314 314 315 311 314 317 316 323 320 310 311 314 313 312 312 317 323 324 318 314 313 312 313 311 311 311 311 311 310 311 311 311 311
317 318 318 318 319 318 319 318 317 317 316 316 315 315 315 314 315 314 314 314 315 315 315 316 316 316 313 314 316 316 316 316 316 316 315 315 315 315 315 315 315 314 315 315 315 315 315 316 316 316 315 314 315 316 319 320 322 321 313 321 324 316 323 322 310 310 315 313 310 312 318 320 318 315 314 312 312 313 310 310 311 310 309 309 309 309 309 310
316 317 317 318 317 317 317 316 316 316 315 315 314 314 314 313 313 313 314 315 315 316 317 317 316 315 314 315 316 316 316 316 316 316 316 315 315 315 315 315 315 314 315 314 314 315 315 316 315 315 314 313 317 324 325 321 324 325 316 321 328 318 319 319 312 310 311 313 311 311 316 318 316 315 314 313 312 312 310 310 309 308 308 307 307 308 308 308
316 316 316 316 316 316 315 315 315 314 314 313 313 313 313 313 313 314 315 316 317 318 317 317 316 316 316 316 316 316 317 317 317 316 315 315 315 315 315 315 315 314 314 314 314 314 314 315 314 315 313 311 315 322 322 319 321 325 318 316 322 319 315 317 318 313 309 313 314 312 314 315 316 314 312 312 311 310 309 309 307 306 306 306 306 306 306 307
315 315 314 314 314 314 314 313 313 313 313 312 312 312 313 314 315 316 317 318 318 317 317 317 316 318 318 316 316 316 317 317 316 316 315 315 315 314 314 314 314 314 313 313 313 314 313 312 313 316 314 311 314 316 318 320 323 326 322 318 320 318 315 316 318 314 312 315 314 315 315 315 317 313 309 310 310 310 309 306 305 305 304 304 305 305 305 305
314 314 313 313 313 313 312 312 312 312 312 312 312 313 315 316 317 317 319 319 318 317 319 318 316 319 320 317 316 316 317 317 316 316 315 315 314 313 314 314 314 313 312 313 313 312 312 312 313 316 316 314 315 315 316 319 321 324 322 320 321 319 317 316 315 313 311 314 315 315 316 317 318 315 309 308 309 308 306 305 304 303 303 303 303 303 303 303
313 312 312 312 312 311 311 311 311 311 311 312 313 315 317 318 319 320 319 319 318 318 319 319 317 318 317 317 316 316 317 317 317 316 315 315 314 313 314 313 313 312 312 317 317 311 311 315 316 317 317 316 314 313 314 315 316 317 317 317 318 317 317 315 315 314 310 313 318 316 316 317 317 316 309 305 308 306 304 304 303 302 302 302 302 301 302 302
312 312 311 311 311 311 311 311 311 312 312 314 316 318 319 319 321 321 320 319 319 318 319 319 318 318 317 317 317 317 317 318 317 316 315 314 314 314 314 313 314 314 313 314 314 310 311 316 318 317 316 314 314 312 311 312 312 313 314 315 316 316 315 313 314 314 310 312 319 316 315 317 316 315 308 304 306 305 303 303 302 302 301 301 301 300 301 301
311 311 311 311 311 310 311 311 311 312 313 315 317 319 320 320 321 320 319 320 320 320 319 319 319 318 318 317 317 317 317 318 317 316 315 314 314 314 314 314 316 318 313 311 313 313 313 316 316 314 312 311 312 311 311 312 312 313 314 314 316 316 316 317 315 314 312 313 320 318 315 316 315 310 306 303 304 303 302 303 301 301 301 300 300 300 300 301
311 311 311 311 311 311 312 312 312 313 314 316 318 320 321 321 322 321 320 320 321 321 320 321 320 319 320 319 319 318 317 317 318 317 315 314 314 314 313 314 316 318 315 314 316 317 317 318 314 310 310 312 313 313 313 313 313 315 316 315 318 317 316 321 320 316 314 312 317 317 314 315 313 308 305 303 302 302 301 302 301 300 300 299 299 300 300 300
312 311 311 311 311 312 313 314 314 315 316 318 320 322 322 322 323 322 320 318 319 321 320 321 320 320 321 320 320 320 318 318 318 318 317 315 315 314 313 313 315 316 315 314 316 317 319 318 311 309 312 313 313 314 314 314 316 319 318 316 317 317 316 320 319 317 316 314 314 314 316 321 315 311 309 304 302 302 301 301 300 300 299 299 299 299 300 300
311 311 311 311 312 314 315 316 317 317 318 320 322 323 322 322 321 320 319 320 321 320 318 319 319 319 320 319 320 319 317 318 318 318 317 316 315 314 313 312 314 317 315 313 313 314 316 313 311 314 316 314 313 315 317 317 318 321 322 318 316 317 317 318 317 316 319 321 316 311 320 329 320 314 311 306 305 303 301 300 299 299 299 299 299 299 299 300
311 311 311 312 313 315 316 318 319 319 321 322 322 322 322 321 320 319 320 324 325 322 319 319 319 319 317 317 317 316 318 318 316 317 317 315 315 315 314 313 313 316 315 313 313 315 316 312 312 318 319 316 315 317 318 317 318 321 321 318 316 314 315 318 317 317 321 323 315 309 317 326 324 320 313 306 306 304 301 300 299 299 298 298 298 298 299 300
310 311 312 313 314 316 317 319 320 320 322 322 322 322 321 320 319 318 320 326 326 322 320 318 317 317 315 315 315 318 323 319 314 315 315 314 314 313 316 315 312 313 311 312 316 317 316 314 313 316 319 319 317 318 318 317 320 324 319 318 319 317 317 319 317 317 320 318 317 316 314 316 320 320 312 307 307 305 302 302 299 298 298 297 298 298 299 300
311 311 313 314 315 316 317 319 321 321 322 322 321 321 321 320 319 318 323 330 327 319 318 316 314 314 313 314 315 315 317 315 314 315 312 313 313 312 315 315 315 316 310 312 323 319 313 315 317 316 317 318 318 319 319 316 320 322 317 316 319 319 320 320 317 318 316 312 319 323 315 314 320 319 309 306 309 308 304 303 300 298 297 297 298 298 299 299
311 312 314 316 317 318 319 321 321 321 322 322 321 321 320 319 318 319 324 329 324 317 316 314 313 312 312 313 313 311 311 311 313 314 311 312 313 311 313 312 313 315 309 310 322 319 311 311 313 316 318 318 319 318 316 318 318 314 312 315 318 318 319 321 319 320 316 313 320 322 316 316 323 322 312 308 312 312 306 303 300 297 297 297 297 298 298 298
312 313 314 317 319 320 320 321 322 322 322 322 322 320 319 319 319 323 327 327 323 317 313 312 312 310 310 313 312 309 310 310 311 311 311 311 312 310 311 311 310 314 314 313 318 316 310 308 308 313 315 314 316 312 308 312 311 308 313 319 321 320 319 320 320 317 316 319 322 320 316 316 321 325 318 311 311 310 306 303 300 297 296 297 297 297 297 298
314 314 315 318 319 319 320 321 321 322 322 322 322 319 318 319 321 327 329 323 321 318 312 312 311 309 311 315 314 310 309 309 309 311 312 311 311 310 310 311 311 317 320 317 318 316 313 312 310 311 310 310 315 313 307 308 307 310 320 322 321 322 320 320 321 318 319 324 322 316 313 313 319 323 317 310 306 304 304 304 300 297 296 297 297 297 297 297
315 315 316 318 318 318 319 320 320 322 322 323 322 318 319 322 323 327 326 320 323 321 315 315 312 309 312 314 315 312 310 310 309 311 314 313 314 312 313 316 315 319 321 318 320 320 317 317 312 310 309 310 318 319 312 311 313 316 321 321 321 321 321 323 323 319 321 322 316 313 313 313 318 318 311 308 304 300 301 301 299 297 296 297 297 296 296 297
317 316 317 317 318 318 318 319 320 322 322 323 321 318 320 324 326 325 323 323 325 318 315 317 314 313 314 313 314 312 311 313 310 310 313 312 313 313 314 317 315 317 319 316 317 318 320 320 313 311 312 311 316 319 316 317 316 315 317 320 322 321 322 327 324 318 319 318 312 312 314 316 321 316 306 302 300 297 298 299 299 298 298 298 297 296 297 297
320 319 318 318 318 318 318 318 319 321 323 322 320 319 321 324 325 324 322 324 324 317 315 316 314 314 314 315 318 314 312 314 311 310 312 311 313 315 314 314 312 316 320 316 316 318 321 324 319 316 314 312 313 315 319 322 315 313 316 317 320 323 325 326 324 321 321 319 313 311 315 322 324 313 301 298 297 295 297 298 298 299 298 297 296 296 297 297
322 321 321 320 319 319 318 319 319 321 323 321 319 320 323 324 324 323 323 323 322 319 317 316 315 314 314 316 318 315 313 315 313 312 314 313 315 319 319 316 313 316 320 318 318 317 318 323 322 314 310 311 313 311 313 319 316 312 313 314 316 321 322 319 319 318 318 319 316 314 318 321 315 305 298 297 297 295 296 296 297 297 296 296 296 296 297 298
322 322 321 321 321 321 320 320 320 320 322 320 320 321 322 323 324 323 322 321 321 319 317 318 318 315 316 318 318 316 314 317 315 312 314 315 316 317 320 321 315 313 317 319 321 319 317 322 320 312 309 310 311 310 309 314 317 313 311 316 316 314 317 319 316 313 312 317 317 315 318 316 310 305 300 298 298 297 296 295 295 296 295 296 296 296 297 299
322 322 322 321 322 322 321 321 321 321 321 319 320 322 321 322 322 321 321 319 319 318 318 321 320 317 318 319 319 318 317 317 315 313 316 317 316 316 318 320 313 311 314 317 320 321 320 323 319 313 314 310 306 309 308 307 313 316 316 317 313 311 316 319 318 317 316 317 317 316 316 316 316 312 303 299 300 299 297 296 295 295 295 295 296 297 298 299
320 321 321 321 321 321 321 321 321 321 320 319 321 321 321 321 318 317 319 317 317 320 321 323 321 319 320 320 320 320 318 318 317 315 319 318 317 317 316 317 313 310 311 311 316 319 317 321 319 312 314 313 308 311 313 308 309 313 315 312 311 316 319 316 317 320 319 318 320 320 315 314 317 315 310 308 304 300 299 297 296 295 295 295 296 297 298 298
319 319 319 320 320 320 320 321 320 319 319 319 322 321 320 321 317 315 317 317 319 322 324 323 321 320 321 320 322 320 317 319 318 317 319 318 317 316 313 315 314 310 309 310 315 318 315 319 321 313 311 314 312 314 319 316 309 308 310 310 312 316 318 316 316 317 319 318 320 321 317 316 317 315 318 316 305 299 299 299 297 296 295 296 297 297 298 299
317 317 317 318 320 319 319 319 318 318 319 320 321 319 318 319 317 316 317 317 319 320 323 324 322 322 322 320 321 322 319 319 318 317 319 318 318 317 314 315 316 312 309 308 312 317 315 316 319 315 311 313 316 316 318 318 314 312 314 314 314 314 314 315 314 315 318 319 321 321 317 319 318 311 313 313 304 299 299 298 297 296 296 298 299 299 300 300
316 315 316 317 319 319 318 318 317 317 320 321 320 319 318 317 316 316 316 316 318 317 319 323 323 322 323 321 321 322 320 321 319 318 320 318 318 318 314 312 313 312 311 310 313 316 315 317 320 317 314 317 319 314 311 314 316 316 317 316 316 316 315 316 315 314 315 316 320 319 315 318 315 305 306 307 302 298 298 297 297 297 298 300 300 300 300 300
314 314 314 315 317 317 317 318 317 317 319 320 320 319 318 317 317 317 316 315 317 316 316 320 322 321 322 322 321 320 320 321 320 319 320 319 320 320 313 309 310 311 313 315 316 313 312 317 320 318 317 317 316 309 305 308 312 314 314 316 317 317 317 317 317 316 315 313 314 315 315 316 309 301 302 302 299 298 298 297 298 298 299 300 300 300 301 301
312 312 313 315 316 315 316 318 317 317 318 317 317 318 317 316 317 317 316 315 316 316 317 318 318 319 320 319 318 318 318 320 319 319 319 318 318 316 311 309 311 311 314 318 316 312 313 316 317 318 318 315 313 311 307 306 310 313 313 313 315 317 317 315 314 316 317 315 315 314 316 315 307 299 298 299 298 298 298 298 298 299 300 300 300 301 301 301
310 311 311 313 314 314 316 318 318 318 317 315 316 316 315 315 316 316 316 316 316 316 318 318 316 317 318 317 317 317 316 318 318 317 316 317 315 311 307 309 312 312 314 316 315 313 315 317 317 318 319 316 314 315 313 311 313 314 314 313 312 314 315 312 311 313 314 315 316 315 314 314 309 301 298 299 298 297 297 298 299 299 300 301 301 302 302 301
308 309 309 310 313 313 313 315 316 316 316 315 315 316 315 315 315 315 316 316 314 314 317 318 316 315 316 315 314 315 314 316 317 315 314 315 314 308 305 307 309 311 312 312 312 312 314 316 316 316 318 317 316 316 315 314 314 313 312 312 311 312 313 313 313 313 314 314 315 314 313 314 310 304 302 302 301 300 299 298 299 300 301 301 301 302 302 301
307 308 308 308 310 311 311 312 312 314 316 315 315 315 315 315 314 314 315 316 314 313 314 315 314 314 316 314 315 315 314 314 315 315 314 316 315 309 305 306 307 308 309 308 308 311 314 315 314 315 317 315 316 316 313 313 315 314 313 312 312 310 311 312 313 313 313 313 313 313 312 313 312 308 306 305 304 304 301 298 298 300 301 301 302 301 300 300
306 307 307 307 309 309 309 310 310 312 313 314 314 314 314 314 313 313 314 315 315 314 314 314 313 315 316 315 315 316 315 313 314 313 314 316 315 308 304 305 306 306 307 307 307 311 314 313 312 314 314 312 312 313 310 310 314 315 313 312 310 308 309 310 311 311 312 312 312 311 310 311 311 309 308 308 306 304 301 299 299 301 302 303 302 301 300 299
306 306 306 307 309 309 309 310 310 311 311 312 313 314 314 314 313 313 314 313 312 314 315 314 314 315 315 315 316 316 315 314 313 313 314 313 312 309 306 305 305 305 306 306 305 309 314 314 311 311 312 310 310 310 309 309 311 310 310 310 309 307 308 308 308 309 310 310 310 309 309 309 308 308 309 308 305 303 302 301 301 302 302 303 302 301 301 300
304 304 305 307 307 307 308 309 309 310 311 311 312 313 313 313 313 313 313 313 312 313 314 315 314 314 314 314 315 315 315 314 313 313 313 312 311 311 310 309 306 304 305 307 306 306 311 314 310 309 311 310 307 306 306 307 308 308 308 309 308 306 305 305 306 306 306 306 307 307 306 306 305 305 306 305 302 302 303 303 303 302 302 302 301 301 301 301
303 303 304 305 304 303 305 308 309 309 310 311 312 312 311 311 312 312 312 313 313 313 313 314 314 313 313 314 314 315 314 314 314 314 312 311 310 310 311 312 308 304 305 308 307 305 308 311 308 307 310 309 304 302 304 304 305 306 306 306 305 304 304 304 304 303 303 304 304 304 304 304 303 301 302 301 301 301 302 302 301 301 301 301 300 300 300 300
302 302 302 303 304 303 304 307 308 309 310 310 311 311 310 311 310 310 311 310 311 313 313 313 314 313 312 312 313 313 312 312 313 312 310 311 310 309 309 310 308 307 307 307 307 307 308 308 306 306 311 308 301 300 301 301 301 302 303 302 300 302 303 303 302 303 303 303 303 302 302 303 301 299 298 299 298 298 298 299 300 300 300 299 299 299 299 299
301 301 301 302 304 304 304 306 308 309 309 309 310 310 310 310 308 309 311 309 307 308 310 310 312 312 311 311 311 311 309 308 309 307 306 307 307 306 306 306 305 307 308 306 306 306 306 307 307 307 309 305 299 299 301 301 303 304 302 301 300 300 301 300 300 302 301 301 302 301 301 301 299 298 299 299 296 295 296 298 299 299 299 298 298 298 298 298
Wind_Speed
10 10 9 9 9 9 8 8 8 7 7 7 6 6 6 6 6 6 6 6 6 6 7 7 8 8 8 9 9 10 11 11 13 15 13 10 4 4 5 4 3 4 4 3 2 1 2 2 2 2 1 2 1 2 2 1 2 2 2 3 0 3 3 5 6 5 3 4 5 7 8 3 5 7 9 11 12 15 17 20 18 16 17 17 17 17 17 18
11 11 11 11 10 10 9 9 9 8 8 8 8 8 8 7 8 7 7 7 7 8 8 8 9 9 9 10 10 11 12 13 14 12 6 1 5 9 6 3 3 4 4 4 3 1 3 4 4 3 2 2 1 2 3 1 2 2 3 2 3 5 5 5 7 6 3 5 8 9 9 5 7 8 8 7 11 14 14 22 22 17 17 16 16 15 15 15
13 12 12 11 11 11 10 10 10 9 9 9 9 9 9 9 9 9 9 8 9 9 9 9 10 10 10 10 11 12 13 15 13 3 4 8 9 7 3 3 5 5 5 4 2 3 5 6 5 4 3 2 2 2 2 2 3 2 3 1 6 6 5 6 8 8 8 8 8 9 8 8 10 9 6 5 10 13 11 17 18 17 21 21 21 20 18 17
14 13 13 12 12 11 11 11 10 10 10 10 10 10 10 10 10 10 10 10 10 10 11 11 11 11 11 11 12 13 14 16 9 6 7 5 4 1 5 8 7 6 6 4 3 5 7 7 5 4 3 1 1 2 2 4 4 2 4 4 5 5 3 8 9 10 9 6 7 9 9 10 13 9 6 6 7 8 14 21 17 19 26 26 23 21 19 18
15 15 14 13 13 13 12 12 11 11 11 11 11 11 11 11 11 12 11 12 12 12 12 12 12 12 12 12 12 13 12 9 2 8 5 4 4 5 9 10 7 8 7 4 4 6 8 8 5 4 3 1 1 1 2 5 5 3 5 6 5 4 3 9 11 11 10 7 9 10 8 10 11 10 11 9 5 10 21 27 24 25 27 24 21 18 16 15
17 16 15 15 14 14 13 13 12 12 12 12 12 12 12 12 13 13 13 13 13 13 13 13 12 12 12 12 13 13 8 2 4 6 6 8 8 11 12 9 7 8 7 4 5 7 8 8 6 5 4 1 3 3 1 5 6 3 4 6 8 7 6 12 13 13 13 11 12 10 9 11 10 13 17 14 16 22 26 26 26 25 21 18 17 15 13 11
18 17 17 16 16 15 14 14 14 13 13 13 13 13 13 13 13 13 14 13 13 13 13 13 13 13 13 13 13 12 9 9 10 10 11 12 13 14 11 8 6 7 5 4 6 7 8 9 8 6 4 0 3 5 1 3 6 4 3 4 7 8 8 13 14 14 16 15 17 15 13 14 10 10 14 19 27 26 22 20 20 17 15 16 14 11 10 9
18 18 17 17 16 16 15 15 14 14 14 14 14 14 14 14 14 14 14 13 13 13 14 14 14 14 13 13 12 10 12 14 10 10 13 14 15 14 10 8 6 6 4 5 6 7 8 10 10 7 3 1 3 4 1 2 4 5 5 5 4 7 10 13 16 18 20 19 20 15 13 19 16 10 12 22 25 16 14 15 13 12 14 14 10 7 8 8
19 18 18 17 17 17 16 16 15 15 15 15 15 15 14 14 14 14 14 14 14 13 14 15 14 14 12 12 10 8 11 11 6 7 9 11 12 11 10 8 7 6 4 5 7 8 9 9 10 9 4 3 4 3 2 1 3 5 5 5 6 11 13 15 17 21 19 17 17 10 12 20 15 6 10 18 12 7 10 10 10 12 11 9 7 7 7 6
19 18 18 17 17 17 17 16 16 15 15 15 15 15 15 15 15 14 15 14 14 14 14 14 14 13 12 12 7 5 8 7 5 6 6 8 9 8 9 8 8 7 5 5 7 9 10 8 8 8 6 3 4 3 2 2 2 2 2 6 10 13 16 15 17 23 19 16 15 9 10 15 7 1 7 12 6 7 10 9 10 10 6 4 4 6 7 7
18 18 18 17 17 17 17 16 16 15 15 15 15 15 15 15 15 15 15 14 14 14 13 14 13 12 12 11 10 8 8 8 7 7 7 9 9 9 9 9 9 8 7 6 7 9 11 10 6 6 5 2 3 3 4 3 2 2 5 8 11 12 16 16 16 20 14 8 8 7 7 8 1 2 9 13 8 10 11 11 8 5 3 2 2 4 6 8
18 18 17 17 17 17 16 16 16 15 16 16 16 16 15 15 15 15 14 14 14 13 13 13 12 12 11 12 16 16 14 13 13 12 12 11 11 11 10 10 10 10 9 10 10 11 12 12 9 7 5 3 2 1 2 2 3 4 4 5 9 9 11 14 10 8 3 2 3 2 4 6 1 6 11 12 9 11 12 11 7 4 3 2 2 2 3 5
18 18 18 18 18 17 17 16 16 16 16 16 16 16 15 15 15 14 14 13 13 13 12 12 12 12 10 12 16 16 14 15 15 14 14 13 12 12 12 12 12 12 11 11 10 11 12 12 11 9 6 4 2 1 2 3 3 4 2 1 5 7 7 8 2 1 1 2 4 2 2 7 6 11 11 10 9 12 12 9 6 3 3 3 2 1 1 2
19 19 19 19 19 19 18 17 17 17 17 16 16 16 15 15 14 14 13 13 13 12 12 11 11 10 11 12 14 14 14 14 13 14 14 14 13 13 13 13 13 12 10 9 10 10 10 10 10 8 6 5 3 2 2 4 3 3 2 1 3 2 5 6 2 1 3 3 4 5 2 6 8 13 12 9 13 17 12 6 3 2 3 3 4 3 2 2
20 21 20 20 20 19 19 18 18 17 17 16 16 15 15 14 14 13 12 12 12 11 11 11 10 9 10 12 14 13 14 15 15 15 14 14 14 12 12 11 10 9 9 9 10 9 8 8 8 6 4 4 2 1 2 4 3 2 1 3 3 2 5 10 6 3 3 1 3 6 2 6 8 12 12 10 16 19 9 4 3 3 5 5 5 4 4 4
22 22 22 21 20 20 19 19 18 18 17 16 15 15 14 13 13 12 12 12 11 11 11 9 10 8 6 10 12 12 12 13 13 13 14 13 12 10 8 7 7 8 9 9 9 9 8 6 5 4 3 3 3 3 3 4 4 3 1 4 3 3 3 7 5 2 4 1 2 3 2 5 6 12 17 16 18 15 5 4 5 6 7 7 6 6 6 5
22 22 22 21 20 20 19 19 18 17 17 15 14 13 13 13 12 12 12 11 11 10 9 8 7 7 8 11 11 11 12 11 9 10 11 11 9 7 6 7 7 8 8 7 7 7 7 6 4 3 1 1 3 5 3 3 5 3 0 3 4 4 3 3 5 2 3 4 1 1 2 6 8 15 20 17 17 10 5 7 8 9 8 9 9 8 8 7
22 22 22 21 20 19 19 18 17 17 16 14 13 12 12 11 11 11 11 11 10 8 8 9 5 3 8 13 12 10 9 8 9 9 9 8 8 7 7 7 6 7 6 5 5 6 6 4 2 1 2 2 3 5 3 5 5 4 3 3 4 3 4 5 5 4 4 4 2 2 3 8 10 13 13 15 13 6 10 11 10 10 11 11 11 12 11 11
23 22 22 21 20 19 18 18 17 16 15 13 12 11 10 10 10 12 12 12 10 6 4 8 10 4 3 7 9 10 7 6 8 10 10 9 9 9 9 7 6 7 6 4 3 5 6 3 3 1 1 3 5 7 9 10 8 6 5 4 4 4 5 6 6 5 2 4 5 5 6 8 9 9 9 13 10 11 13 13 13 13 13 14 14 15 14 14
23 23 22 21 19 19 18 17 16 16 14 12 11 10 9 8 6 7 11 15 17 15 11 11 12 11 7 3 4 7 7 7 9 11 11 11 11 11 9 8 6 5 4 3 3 3 5 3 2 5 6 8 10 12 11 6 4 4 2 3 4 5 6 5 6 5 0 1 6 5 4 7 8 6 8 10 9 13 12 13 14 14 15 15 16 16 16 17
24 23 22 20 19 18 17 17 16 15 14 13 12 10 8 6 3 3 6 11 16 18 19 18 16 17 15 10 7 7 7 8 10 12 13 13 12 9 8 7 5 2 2 3 3 2 4 4 7 11 10 9 8 9 8 3 2 2 2 3 4 5 6 7 5 5 1 2 5 3 3 9 6 3 8 9 9 10 9 11 13 13 15 15 16 16 16 16
24 23 21 19 18 17 17 16 16 15 14 13 13 11 9 8 7 7 6 8 13 17 19 21 22 23 22 19 17 15 10 8 10 14 14 15 14 10 8 7 4 3 2 3 4 2 2 4 12 12 6 3 1 3 5 4 3 2 2 2 4 4 4 7 5 4 2 2 4 3 3 9 4 4 7 10 9 9 11 12 12 13 15 15 15 16 16 17
24 22 21 20 18 17 17 17 16 15 14 13 12 11 10 8 8 9 7 6 11 17 18 21 24 27 27 25 24 22 17 13 12 15 16 16 16 12 9 8 4 3 2 4 5 4 3 7 11 9 4 3 3 3 7 3 2 3 3 2 4 4 1 4 4 4 2 1 3 2 3 7 2 3 6 9 10 12 15 15 15 15 15 15 14 15 16 18
23 22 21 20 19 18 17 17 17 15 14 13 12 11 9 7 7 7 6 4 7 11 15 19 21 24 26 24 21 21 20 17 12 12 17 19 16 11 9 8 6 3 4 7 8 6 7 7 2 3 5 6 5 3 6 4 2 3 5 5 5 5 5 6 4 4 3 2 2 2 4 5 2 1 2 6 9 11 12 14 15 14 14 14 14 16 17 19
23 23 22 21 20 18 18 17 17 15 14 13 11 10 8 7 7 5 3 2 4 6 8 13 14 16 19 18 17 15 13 14 13 10 14 20 18 10 5 8 6 4 6 6 5 6 9 7 2 4 3 4 5 4 5 7 3 4 5 10 10 8 7 6 3 4 4 3 3 4 3 4 4 2 3 3 4 6 7 10 12 12 12 13 15 16 17 20
23 23 23 22 21 19 18 17 17 16 14 13 11 10 9 7 5 3 0 2 4 4 3 7 8 8 11 11 12 11 4 7 12 13 14 19 20 11 4 5 4 3 5 6 2 3 5 5 4 5 4 5 4 5 5 7 5 2 4 8 10 7 6 5 3 2 0 3 2 3 0 5 5 3 5 5 4 4 5 7 8 9 11 12 14 15 17 20
24 24 23 23 22 21 20 16 17 17 14 13 12 10 9 8 6 3 2 3 4 4 6 6 6 6 7 9 13 12 2 3 7 11 16 19 18 12 5 3 2 2 4 5 1 3 3 1 2 5 5 5 5 4 6 7 6 3 4 4 6 6 6 6 5 3 2 3 3 2 1 3 4 4 4 7 7 3 2 3 5 7 9 11 13 14 17 20
25 25 24 23 23 23 20 17 17 18 15 12 13 12 10 10 8 4 3 2 3 4 5 4 6 6 8 13 16 9 3 5 6 6 15 18 15 9 5 5 6 4 3 5 3 4 1 1 3 6 4 4 5 3 6 9 4 5 3 6 6 6 5 5 5 2 1 2 4 4 0 2 5 4 0 5 4 2 4 3 2 5 8 10 12 14 17 20
26 26 25 24 23 21 20 18 18 19 15 12 14 13 11 12 8 4 3 3 2 3 3 5 7 6 9 14 10 4 4 3 2 6 12 13 12 5 2 5 6 4 1 3 4 4 1 1 4 6 5 5 3 1 5 8 3 4 5 6 5 5 5 4 4 3 2 1 5 6 3 2 5 4 0 2 2 4 5 4 4 6 8 10 13 15 17 19
27 27 26 26 25 24 23 21 20 20 17 14 14 14 14 12 6 3 3 4 1 2 3 6 6 5 9 9 3 1 3 1 3 9 8 6 8 4 3 4 4 4 1 3 1 4 2 1 2 3 3 4 4 4 2 3 3 6 6 6 6 5 5 4 2 3 2 3 6 7 7 5 4 5 2 3 2 3 5 4 5 7 9 11 13 15 17 18
29 28 28 28 29 27 26 26 24 21 20 16 15 17 16 7 3 3 7 2 2 2 4 3 2 5 8 6 2 2 2 1 4 9 5 2 4 3 4 3 2 3 3 4 2 5 4 2 2 2 3 4 7 5 4 4 4 6 4 4 3 4 4 4 4 3 0 5 5 4 3 5 4 4 3 3 3 1 4 6 8 9 12 15 15 15 16 18
30 30 30 30 30 28 28 27 24 22 21 17 17 18 13 3 2 5 4 2 1 3 4 3 1 4 6 3 3 4 3 2 3 5 4 2 3 3 3 4 4 3 2 4 2 4 3 4 3 1 2 5 6 4 3 5 5 5 4 5 3 3 3 3 3 0 3 6 3 2 1 3 6 4 1 3 4 4 6 6 13 17 18 19 17 16 16 18
30 30 31 32 31 30 29 26 23 22 21 20 21 16 7 3 6 6 3 1 2 2 3 3 2 3 6 4 2 4 3 2 4 3 2 3 3 4 4 3 6 4 0 3 2 1 3 5 1 1 3 6 8 4 2 1 1 4 5 4 3 1 1 3 3 2 4 4 2 2 1 1 5 2 1 3 5 5 5 7 20 23 23 22 19 17 17 18
28 28 30 32 31 31 29 25 24 24 23 24 21 11 5 6 4 6 8 5 1 1 2 3 4 3 4 3 3 4 3 2 4 4 2 3 2 3 5 4 5 3 3 3 2 4 2 4 3 4 2 6 8 5 5 5 4 4 4 5 4 4 4 4 3 3 4 3 2 2 1 2 3 1 2 2 3 4 5 13 22 23 22 21 20 19 18 18
29 28 30 31 32 32 29 27 26 24 26 26 15 5 8 8 2 4 7 5 2 2 2 3 5 4 2 2 3 3 3 2 4 5 2 3 3 4 4 5 6 4 4 3 2 2 3 5 6 3 0 5 6 4 6 6 3 2 3 5 2 4 4 2 3 4 2 2 3 2 2 3 4 0 2 2 5 7 10 16 20 20 20 20 20 20 20 19
31 31 32 32 34 34 31 31 29 27 29 23 10 6 9 5 3 5 4 4 4 5 5 3 3 4 2 2 2 3 2 1 4 4 2 2 3 4 4 4 7 8 5 5 3 2 3 4 5 2 1 3 4 4 4 3 3 2 2 3 3 3 6 2 2 1 3 2 4 1 2 4 0 1 3 4 5 5 6 10 15 18 19 20 21 21 20 20
31 31 32 33 34 33 33 34 33 34 34 20 8 9 5 1 4 4 3 4 5 6 7 3 2 4 4 2 3 4 2 1 3 3 2 2 3 5 4 4 6 11 10 6 3 3 4 4 5 2 2 1 2 5 4 2 4 4 2 5 3 2 4 3 2 3 3 3 4 0 3 4 2 2 3 3 2 2 3 6 10 15 18 20 22 22 21 20
32 31 32 34 34 34 35 34 35 38 30 13 9 10 3 2 5 3 4 5 5 5 5 3 4 3 4 4 2 3 4 3 3 3 3 2 3 4 5 3 5 10 13 9 3 2 3 2 6 1 3 1 2 4 3 3 2 4 3 3 3 2 1 2 2 2 2 3 4 3 3 3 4 4 2 4 7 7 6 7 8 13 18 21 22 23 21 20
30 26 25 32 36 35 33 33 35 35 20 6 10 10 2 3 5 4 8 7 4 4 3 3 3 1 2 4 2 3 4 4 4 4 3 3 3 3 4 3 3 4 8 9 5 1 3 2 4 2 0 0 3 2 3 2 1 3 3 2 2 2 3 2 2 2 2 3 3 5 4 3 5 5 6 9 10 11 10 9 9 14 20 23 24 24 22 21
25 16 13 25 32 27 27 28 29 25 10 4 8 5 2 3 3 5 9 6 4 3 3 4 4 3 2 3 2 2 3 3 5 4 3 3 2 2 1 1 2 1 2 6 5 1 2 2 3 2 2 0 1 2 6 6 3 3 3 2 1 1 1 1 1 3 3 3 3 3 5 5 4 3 5 7 8 12 14 12 12 18 25 27 27 26 23 20
22 9 6 19 25 23 25 23 16 9 3 2 4 2 2 3 3 6 9 6 4 3 3 4 4 4 4 3 2 3 3 3 5 3 3 3 2 1 1 2 2 2 2 3 3 2 2 3 3 2 1 3 4 4 4 6 4 5 5 4 4 3 2 1 4 2 2 2 4 3 5 7 4 1 2 4 6 12 17 16 15 22 29 30 29 27 23 19
17 5 4 16 22 23 24 14 5 3 2 3 3 4 4 4 5 7 7 6 5 2 3 3 3 3 4 3 2 3 4 3 3 3 3 3 3 2 1 2 3 3 3 3 3 2 1 2 3 2 3 4 5 2 2 3 3 4 2 2 3 3 4 4 6 3 2 1 2 3 4 5 2 1 2 3 6 12 17 18 18 24 30 31 28 25 21 18
11 3 5 16 22 22 17 6 2 4 2 2 4 4 5 5 4 6 7 6 4 3 3 2 3 4 4 3 3 3 4 3 3 4 2 2 2 1 2 3 3 3 3 1 2 1 2 2 1 2 2 2 4 4 2 1 3 2 1 1 3 3 3 4 5 3 2 2 2 1 5 4 1 2 2 1 6 12 17 21 22 25 28 28 26 24 22 20
6 3 3 13 23 21 10 4 4 6 3 3 4 2 2 2 3 6 6 6 5 4 4 3 3 5 4 3 4 4 5 3 3 4 3 2 3 2 3 3 3 3 2 1 1 1 0 1 2 1 2 2 3 3 2 2 0 2 2 1 2 3 4 2 1 2 1 4 6 4 6 5 1 2 2 3 5 9 15 20 23 24 27 28 27 25 23 22
5 3 1 9 20 17 6 2 2 3 3 3 2 2 2 0 3 7 6 5 5 4 3 3 5 6 4 3 3 2 4 4 2 3 3 2 2 2 3 3 5 6 6 7 6 4 2 2 3 3 5 6 4 3 2 2 1 2 2 3 3 5 6 3 1 2 3 4 5 5 6 4 3 1 1 1 3 5 10 16 20 23 25 27 28 27 26 25
4 2 1 4 13 13 8 4 1 1 3 4 2 3 5 3 3 6 7 5 6 5 2 1 4 5 3 3 4 3 5 5 3 3 3 3 3 2 1 2 4 6 6 8 9 6 2 2 5 7 9 7 5 4 3 3 3 3 3 5 5 5 6 5 3 4 3 1 3 6 3 1 5 2 3 4 3 5 9 14 20 24 24 24 26 28 27 26
4 2 3 3 5 9 9 7 4 1 1 4 3 2 6 7 3 4 8 7 7 9 4 1 3 4 3 5 5 4 6 5 4 4 3 3 2 3 1 0 2 5 6 7 7 5 3 2 5 7 7 5 3 3 2 2 3 5 5 6 5 4 6 6 5 5 4 2 7 8 4 3 8 6 6 7 6 6 8 12 20 26 26 24 24 24 24 23
5 3 7 8 4 3 6 8 8 5 2 3 3 1 4 9 7 5 7 4 4 10 7 1 5 9 8 8 6 4 5 4 4 5 3 2 2 1 1 1 2 4 5 4 4 4 3 4 4 3 3 3 3 1 2 2 1 3 4 6 6 5 6 7 6 7 6 5 8 7 4 6 10 7 6 9 10 10 12 16 24 28 26 23 22 22 23 23
8 3 5 9 5 2 7 11 10 9 7 5 3 3 5 8 8 6 4 2 1 6 9 6 7 10 10 9 7 6 6 6 5 5 4 4 4 3 2 2 3 5 4 3 1 3 3 2 1 2 2 1 1 1 2 2 1 2 6 9 7 5 6 7 7 7 7 7 9 7 6 9 11 6 6 9 12 13 15 19 23 25 25 23 22 22 22 23
11 8 6 7 5 3 4 8 9 8 9 7 6 7 6 6 8 6 3 5 5 4 7 10 10 8 9 9 10 10 10 9 8 7 7 6 3 3 4 3 3 3 2 2 1 1 2 1 2 3 1 2 2 2 3 2 2 4 9 11 4 1 4 8 8 4 3 6 10 8 8 11 11 6 7 10 12 13 17 21 23 24 22 21 21 21 21 22
15 14 10 6 3 4 4 4 6 5 5 7 8 7 5 7 10 7 3 7 9 5 6 13 12 6 6 8 12 13 12 11 11 9 11 12 8 6 6 5 7 6 3 2 2 1 2 1 2 4 1 3 2 3 3 2 1 5 13 11 5 5 7 7 4 5 7 9 9 6 6 10 8 3 6 10 12 14 18 22 23 22 20 20 21 21 22 22
18 16 14 9 3 5 6 3 4 6 6 8 10 9 8 8 8 8 5 5 7 7 7 11 11 5 4 9 12 15 15 12 10 8 11 13 11 8 7 6 8 7 6 5 2 0 3 4 2 2 3 2 2 2 3 4 3 8 11 8 9 10 10 5 3 8 10 7 5 6 8 9 4 3 4 8 10 13 17 20 21 21 20 20 21 21 21 21
Wind_Direction
223 223 223 222 221 222 221 220 222 222 222 223 224 225 227 228 233 239 242 248 255 262 271 276 284 291 296 303 308 311 315 318 319 319 312 302 282 181 154 128 81 42 32 29 18 243 228 228 188 170 183 149 120 124 114 112 107 61 82 96 248 200 200 189 187 195 182 263 281 319 329 292 287 306 307 307 288 282 289 288 288 285 289 297 302 306 304 304
225 224 225 225 224 225 225 226 227 227 229 230 230 233 234 236 241 244 247 253 257 263 271 276 284 289 295 302 304 308 311 316 319 320 320 331 137 135 127 102 19 359 2 355 342 263 223 206 185 177 180 156 115 127 149 172 131 99 102 118 232 202 209 202 194 207 209 274 283 304 313 279 276 296 305 296 283 295 299 297 301 301 309 324 325 320 312 307
229 228 229 229 228 227 227 229 230 230 233 232 235 237 237 242 247 249 253 258 262 266 273 277 283 287 293 297 301 307 313 318 317 308 118 114 124 123 80 353 332 328 330 331 310 249 222 207 199 195 184 151 123 149 165 179 167 145 110 154 245 214 230 245 231 243 256 273 283 300 304 289 296 302 292 273 295 304 291 291 300 307 320 333 333 327 318 311
233 232 234 234 233 231 231 233 234 235 237 238 241 242 244 249 252 255 260 263 267 269 273 276 280 284 289 293 300 306 316 322 305 184 149 132 141 166 335 332 326 320 318 307 259 236 222 212 215 200 171 143 161 192 203 194 189 176 152 187 229 186 230 263 261 277 278 269 271 291 305 303 308 310 286 289 316 303 285 294 297 304 318 326 328 329 322 317
234 234 235 236 237 236 235 236 238 240 242 244 246 248 250 252 255 259 262 264 267 269 273 276 279 283 288 292 298 303 321 340 215 172 188 211 221 285 313 320 316 317 316 280 232 225 220 212 207 185 170 192 165 190 246 199 180 175 210 234 233 176 230 276 281 289 287 289 290 297 307 303 306 301 287 284 269 268 288 302 304 306 314 321 325 330 327 322
235 234 234 235 237 237 238 238 240 242 244 246 248 250 251 252 255 258 260 263 266 269 272 274 277 281 286 289 293 298 306 313 214 203 236 239 251 285 298 301 301 312 307 256 223 218 219 210 201 186 175 209 180 194 239 188 188 212 260 258 253 240 247 278 288 289 288 293 292 294 296 296 301 295 292 276 260 276 294 305 308 310 316 324 329 331 331 328
237 236 235 236 237 238 240 241 243 245 246 248 250 251 252 254 255 257 259 263 265 269 272 273 277 279 283 285 287 291 272 263 268 256 255 250 260 277 282 277 285 302 290 237 220 215 219 212 205 192 164 66 203 207 228 197 200 206 271 270 265 264 260 279 290 292 290 288 287 291 290 288 282 286 299 284 278 289 302 308 312 318 328 334 336 339 348 353
239 238 238 238 239 240 242 243 246 248 249 250 252 253 254 256 257 259 261 264 267 269 272 274 276 277 280 282 283 283 269 272 278 257 252 250 257 267 262 257 270 286 269 227 220 214 223 218 211 201 177 202 201 204 222 260 221 192 242 273 286 287 285 293 295 292 290 288 290 292 280 280 279 277 283 283 289 304 308 309 320 329 336 341 349 7 15 13
240 240 240 241 241 241 242 244 246 248 250 251 253 254 256 259 259 262 264 265 268 269 272 273 274 275 275 274 275 278 273 275 268 243 247 248 251 252 245 249 258 265 254 229 223 213 219 221 216 213 219 226 202 208 153 141 255 204 219 276 300 297 298 300 293 289 289 287 291 286 275 284 289 290 269 277 300 325 304 315 333 335 342 351 357 5 9 4
240 240 240 241 241 242 243 244 246 249 250 252 254 257 259 261 262 265 265 267 267 267 269 269 270 270 269 265 250 251 271 264 251 250 246 245 247 241 237 244 247 244 238 238 235 224 219 220 219 216 230 225 185 207 175 157 257 238 263 285 285 291 297 296 287 287 290 289 283 259 264 283 287 98 261 275 312 318 315 351 351 345 2 7 348 341 346 348
240 240 239 240 241 242 244 245 247 250 253 255 257 260 261 263 264 264 264 265 264 264 264 265 267 265 265 259 227 226 263 261 260 261 247 247 248 245 240 236 234 228 232 255 262 246 228 222 215 202 217 201 174 215 220 218 275 313 329 304 291 304 303 290 281 286 291 294 280 232 251 288 300 165 257 275 305 324 347 27 24 22 46 33 7 335 334 339
240 240 239 240 241 242 245 247 250 252 255 258 259 260 261 262 262 262 262 262 262 261 262 262 263 262 263 256 243 248 267 266 266 267 260 256 249 245 240 230 229 234 249 267 268 252 233 226 218 213 222 189 168 225 223 250 313 308 341 317 303 336 316 286 275 278 272 273 280 218 282 311 265 220 264 291 309 330 4 42 45 54 77 86 76 349 337 335
240 241 241 242 243 245 247 250 252 255 256 257 258 258 259 259 258 259 258 259 260 259 261 260 260 263 258 254 257 262 265 261 262 263 261 256 245 238 235 234 241 252 261 262 254 242 231 226 220 224 231 204 185 197 244 310 327 297 346 357 311 353 320 284 261 200 345 283 246 152 286 294 265 252 284 325 342 352 14 39 33 47 95 102 101 59 27 346
242 243 244 245 247 248 249 251 252 253 255 255 256 256 256 256 256 257 257 258 258 257 258 257 258 259 250 253 265 265 257 255 255 253 255 252 245 240 241 247 253 256 253 242 234 230 225 221 220 224 228 224 210 192 299 340 349 298 333 15 338 344 279 290 341 246 326 312 208 158 218 265 271 283 306 348 355 355 8 41 33 67 108 108 112 100 76 48
243 244 245 246 247 248 248 248 249 250 252 253 253 254 255 255 255 255 255 255 256 257 257 256 256 254 253 260 264 261 256 254 253 251 251 250 249 250 251 251 248 242 232 224 223 219 211 207 211 213 212 217 198 133 352 349 2 20 311 308 327 198 265 306 315 213 213 295 157 146 214 269 271 288 309 340 345 348 4 65 81 106 106 110 110 99 90 72
242 242 242 244 244 245 245 245 246 247 248 248 249 250 250 251 252 251 252 253 255 257 257 260 257 247 256 269 262 257 257 254 254 251 246 246 247 249 249 242 232 227 224 220 219 213 205 201 206 211 204 189 134 91 43 355 333 357 208 248 270 218 268 317 327 184 168 86 70 150 233 283 280 286 299 324 341 351 31 106 106 106 100 102 98 94 95 88
240 240 239 240 240 240 240 241 242 242 243 243 243 243 244 246 247 249 250 251 255 257 259 258 257 255 257 261 259 256 255 250 247 243 239 238 236 235 229 223 216 216 219 214 214 209 201 196 191 211 222 97 103 97 64 312 284 309 311 228 247 224 221 291 310 327 82 83 344 263 228 257 271 280 295 328 345 358 93 117 105 98 92 91 88 86 85 81
237 237 237 236 236 236 236 237 237 237 237 236 236 237 238 242 245 249 252 254 253 259 265 242 223 277 260 248 247 249 249 237 231 230 229 223 217 212 203 207 209 204 196 188 196 186 185 181 148 188 17 51 115 121 162 230 217 215 205 211 252 246 229 247 268 294 18 30 295 280 254 257 269 278 306 350 1 38 101 108 99 92 87 84 81 79 76 73
234 234 234 233 232 232 232 232 232 232 231 229 229 229 235 243 249 253 252 249 236 225 251 222 198 195 255 252 241 236 234 224 225 226 223 212 201 194 189 194 197 186 164 150 194 177 163 118 89 206 262 186 187 174 199 216 196 194 199 185 206 236 248 241 246 263 336 342 287 261 259 264 272 282 332 3 28 79 98 99 92 87 83 80 79 76 74 73
231 231 231 230 229 228 228 227 227 227 224 221 219 220 233 242 255 263 249 243 239 236 244 237 223 227 242 269 221 215 228 232 233 226 218 210 199 190 186 186 179 177 165 160 196 175 154 149 178 221 217 198 205 205 209 214 159 148 162 187 211 230 263 261 259 277 108 267 273 262 265 270 270 294 351 11 50 75 83 88 84 82 80 78 77 76 75 74
229 229 228 226 224 224 223 222 222 221 218 215 213 214 223 218 216 270 260 254 254 249 249 251 249 246 247 248 235 240 250 244 236 223 216 209 196 188 189 179 151 176 226 147 127 108 141 179 223 227 218 206 211 211 218 241 107 124 188 241 260 238 258 263 259 292 358 176 267 318 308 278 275 336 5 28 58 58 66 84 83 82 81 79 79 78 79 82
226 225 223 221 219 217 218 218 218 217 215 212 211 213 220 222 230 258 279 280 269 258 252 249 249 249 248 244 244 251 251 242 233 219 212 203 192 194 187 164 149 189 197 117 102 78 152 220 238 235 222 202 222 158 180 216 194 184 183 221 267 246 275 284 281 320 20 162 267 321 295 279 307 41 25 41 65 64 74 90 89 90 87 82 83 83 87 90
222 220 218 215 212 210 211 213 214 213 212 211 212 214 225 236 243 260 273 284 279 267 255 249 246 246 246 245 245 245 239 236 237 224 215 203 194 197 183 160 165 167 153 175 166 157 202 242 245 234 177 172 239 141 128 137 171 182 165 166 251 251 271 280 292 331 0 142 265 269 262 276 320 75 47 53 76 77 80 89 89 90 87 84 87 88 90 90
218 214 213 209 205 205 206 209 212 210 209 210 212 215 225 239 242 259 270 275 286 273 255 248 245 244 245 244 242 238 233 231 237 229 217 205 191 188 191 179 167 165 197 202 187 193 229 244 238 121 135 169 217 184 133 142 228 239 202 194 234 239 213 228 281 331 339 0 12 8 311 290 278 175 83 72 81 75 75 82 81 82 88 92 96 94 92 90
213 210 208 203 200 200 202 208 209 207 209 210 212 215 217 226 228 245 280 300 286 273 255 239 235 239 238 237 235 226 226 231 232 228 213 204 192 178 186 184 174 207 209 184 186 229 252 248 157 97 106 156 194 215 175 168 206 288 230 207 220 225 216 226 297 1 3 334 348 32 346 294 309 285 189 136 76 64 62 68 69 75 88 96 97 95 95 94
209 206 203 199 196 197 201 206 207 206 209 210 209 207 205 201 197 210 80 23 289 246 207 204 207 215 216 220 212 191 201 240 224 216 201 197 198 185 164 174 175 219 183 151 174 235 254 248 192 163 141 146 185 243 222 169 144 293 246 205 209 208 196 194 165 99 258 258 287 47 228 267 313 297 202 161 101 76 62 56 64 78 87 94 96 99 101 99
206 203 200 198 195 196 200 202 204 204 205 208 202 191 192 184 166 154 75 3 281 200 154 169 172 177 193 185 169 160 180 206 181 196 190 188 196 189 183 188 161 206 163 130 174 240 220 230 158 158 132 145 191 242 223 159 127 249 253 150 160 171 177 176 150 158 225 261 314 4 177 256 291 280 211 143 118 89 78 64 66 83 93 100 104 107 107 104
203 200 199 198 197 200 201 199 202 201 202 203 192 183 178 171 167 136 91 303 266 141 131 161 156 161 168 165 164 156 137 140 136 185 184 182 190 186 203 211 174 186 164 138 205 261 173 156 195 168 140 180 206 227 185 156 147 244 213 111 125 143 149 139 118 140 312 8 308 298 258 261 265 273 48 123 139 182 184 180 127 109 112 115 118 117 113 110
201 200 200 198 198 201 200 200 200 197 197 190 181 180 166 158 155 99 88 240 216 108 128 153 148 154 150 155 172 165 119 126 116 167 171 178 187 173 188 207 168 151 123 135 206 263 57 220 219 159 157 206 207 359 171 167 189 203 135 93 72 74 80 78 99 111 36 30 250 243 189 206 269 277 75 133 217 216 189 189 168 143 134 131 130 127 121 115
200 201 201 197 196 197 198 201 198 192 188 181 177 172 159 152 130 103 214 230 152 106 130 149 161 161 141 139 177 198 137 115 115 141 147 165 180 158 120 160 129 119 31 10 244 262 319 319 253 156 178 189 133 59 66 139 143 130 103 62 37 31 45 45 63 91 46 272 246 232 198 184 269 283 209 178 240 204 170 167 172 158 150 147 141 134 127 120
201 200 201 200 200 199 199 199 194 188 185 181 177 165 157 150 101 181 217 218 70 116 122 139 184 151 144 138 165 179 128 86 139 145 139 123 158 144 113 128 98 85 3 336 300 304 330 326 279 231 184 133 102 63 35 47 87 104 82 63 44 342 13 24 355 46 151 253 265 265 211 173 227 266 236 240 301 255 185 178 172 165 161 157 150 142 133 125
205 203 201 204 206 204 204 201 192 187 186 184 180 166 151 158 225 208 216 74 117 202 153 165 216 158 157 129 146 169 134 141 168 149 143 127 152 181 164 164 157 92 343 255 259 336 314 251 270 311 215 160 114 66 28 13 37 82 90 87 75 323 354 355 311 344 230 249 274 285 166 181 235 242 221 283 311 306 281 218 172 163 163 161 154 148 139 131
210 206 204 207 209 209 208 204 194 190 192 187 180 166 140 217 217 188 184 189 198 189 130 132 113 138 149 134 180 177 130 171 188 157 138 119 149 221 244 199 162 137 143 197 195 348 296 296 308 93 262 198 159 139 176 250 114 141 142 125 126 136 39 293 274 277 270 268 293 275 197 253 268 263 208 284 309 319 300 198 169 161 160 160 156 152 145 139
213 208 208 209 214 216 213 207 197 194 198 190 175 159 170 223 210 156 179 208 193 97 91 106 101 105 139 166 221 184 142 200 174 140 109 112 138 225 243 229 183 140 112 144 171 174 204 300 224 179 226 188 177 177 162 144 144 174 152 131 143 152 167 232 227 217 259 285 307 288 241 206 219 267 271 272 7 42 101 147 157 157 158 159 157 156 151 147
218 215 212 211 214 218 218 214 204 199 200 187 167 170 205 207 188 154 183 191 151 117 74 90 108 115 182 258 272 206 188 216 155 127 133 159 177 198 200 208 189 154 133 160 221 169 163 258 249 241 150 158 177 186 133 111 124 205 120 111 156 179 162 204 206 179 195 296 298 241 232 221 183 143 339 60 62 70 107 135 148 155 159 162 163 162 158 153
222 221 218 217 216 216 218 216 209 207 203 184 163 214 212 193 175 176 178 154 150 144 118 97 104 129 212 267 277 240 214 150 140 137 182 195 209 209 211 221 188 173 163 160 205 171 144 267 277 343 12 156 166 175 141 131 180 162 121 171 212 168 122 111 264 33 74 269 274 205 244 289 354 47 356 44 61 69 107 138 151 157 163 169 170 168 163 157
222 223 224 225 224 224 224 221 217 214 205 187 185 215 196 137 187 177 162 137 131 136 135 151 175 167 197 213 219 214 168 133 151 153 202 222 230 199 204 251 190 182 191 182 218 207 151 263 277 139 175 249 120 126 80 55 139 129 176 208 182 112 96 100 254 344 30 249 273 209 217 264 264 254 336 28 106 148 167 168 165 168 175 179 178 172 167 163
226 226 228 229 229 229 228 228 224 214 202 188 211 217 180 183 202 162 151 139 108 115 132 182 198 169 183 195 217 187 158 177 174 161 188 216 243 184 167 222 197 194 204 187 204 249 137 247 284 162 160 264 51 102 70 6 93 131 175 177 114 140 175 102 165 247 262 248 281 297 260 243 215 208 214 208 196 188 193 193 188 189 189 188 184 178 174 171
225 221 226 229 229 229 228 226 217 205 196 191 215 216 174 195 216 174 156 135 93 116 140 197 195 129 166 173 172 167 168 182 168 171 190 179 225 193 149 189 199 213 216 180 174 245 125 182 276 315 171 302 33 94 176 245 6 93 113 101 83 161 176 149 152 173 201 232 270 300 307 279 235 205 191 204 191 175 184 194 199 200 196 192 187 182 180 178
212 209 222 222 221 221 215 209 202 195 193 206 205 201 141 186 223 197 175 148 101 125 167 195 176 160 173 158 158 171 174 183 170 182 211 180 206 232 103 93 136 131 222 179 183 210 114 175 241 301 336 132 179 206 188 186 171 139 152 182 212 170 130 222 211 129 143 184 210 263 282 271 253 201 190 206 185 175 186 188 191 198 196 192 188 184 183 181
198 205 230 207 203 201 193 190 191 191 208 225 188 153 153 173 180 200 202 187 152 122 138 159 163 172 167 154 185 177 156 176 179 189 224 204 198 229 11 54 115 121 94 135 200 223 168 173 184 201 198 188 227 242 191 187 172 159 185 198 190 171 130 212 247 189 132 171 178 204 263 270 260 199 195 212 190 187 191 184 184 195 195 192 190 189 187 185
194 214 228 191 188 188 185 182 182 175 194 219 180 151 163 167 171 188 195 186 171 126 111 130 150 168 165 164 182 166 152 170 186 189 217 219 194 175 174 118 103 115 114 139 218 226 128 132 155 199 208 214 252 282 171 197 152 125 185 194 157 151 139 188 237 225 155 219 153 147 256 270 266 281 273 236 208 196 192 185 185 195 196 195 194 193 193 196
194 214 209 186 182 184 187 190 179 175 192 177 139 128 149 158 167 177 181 186 178 135 131 159 176 189 198 173 150 159 165 166 181 183 194 245 221 203 191 169 118 106 113 154 226 154 84 101 151 269 303 321 314 332 18 78 98 112 259 151 140 163 152 185 220 178 151 227 138 129 247 250 305 329 327 200 193 190 188 188 192 197 199 198 197 198 201 204
161 154 195 186 183 188 202 225 193 192 194 127 115 103 127 155 177 173 178 192 186 149 152 177 183 199 209 151 137 172 182 176 190 193 187 194 209 206 186 193 189 159 154 206 193 152 186 112 112 272 306 330 336 344 339 323 11 182 227 199 159 142 112 105 161 128 185 207 167 190 248 246 294 343 42 98 149 177 192 196 196 196 198 200 201 203 208 212
125 134 260 201 195 200 233 288 191 194 198 178 172 172 160 282 215 197 190 185 184 166 154 182 176 171 172 129 104 152 193 203 210 191 186 202 241 208 167 207 215 190 193 203 183 160 180 180 153 193 238 244 237 224 223 237 208 184 213 211 195 165 151 154 152 174 225 209 176 216 251 269 310 5 33 31 138 172 206 206 201 200 202 207 208 208 213 217
135 168 263 213 214 230 264 277 227 130 202 216 237 200 198 226 229 209 206 204 210 196 146 139 156 144 151 146 132 170 208 218 212 169 168 199 255 290 145 196 203 183 182 184 171 153 141 189 198 213 233 238 227 228 217 150 148 189 214 206 200 181 167 161 156 195 207 179 242 243 215 276 292 249 223 252 205 197 216 207 203 206 210 215 216 217 221 222
149 202 189 165 224 248 265 265 235 181 162 191 200 207 208 212 219 211 205 210 217 204 197 354 161 171 191 162 157 198 205 204 207 183 157 178 227 287 290 182 163 168 164 163 165 148 124 215 213 214 237 234 188 201 195 126 167 191 199 207 201 168 159 169 193 206 169 154 252 247 155 175 260 241 210 227 218 218 228 210 206 209 213 219 224 226 229 228
173 224 196 178 182 225 233 233 217 205 206 191 194 211 196 199 202 201 199 206 212 198 197 239 200 200 194 167 164 199 186 185 207 189 158 166 180 200 262 238 197 179 164 159 167 135 136 226 211 172 216 204 147 136 108 106 181 189 203 224 211 186 180 186 208 215 194 210 253 254 170 204 250 241 200 213 213 212 220 214 211 213 219 229 237 237 235 233
196 228 203 196 206 212 209 208 198 201 217 208 206 232 213 205 207 198 174 142 206 206 202 218 223 209 197 178 175 197 193 186 200 196 176 181 180 160 173 230 220 195 165 144 164 140 152 213 168 139 209 174 92 358 64 104 265 266 254 249 235 212 198 199 219 222 212 233 256 259 240 242 251 229 196 221 225 223 229 228 224 228 236 243 245 244 242 240
201 209 198 201 229 252 210 197 184 199 217 207 217 231 216 211 217 212 175 172 198 215 200 215 230 210 192 191 195 214 216 196 201 206 178 173 192 190 201 206 166 168 157 135 182 186 170 189 95 106 237 293 338 29 79 131 215 247 260 257 235 166 222 225 227 208 182 239 249 253 258 262 263 231 204 235 237 229 238 240 239 242 245 244 245 245 245 244
206 206 196 185 215 209 191 189 179 191 210 206 217 220 200 212 214 202 206 213 212 208 189 210 225 208 186 205 210 222 223 203 203 202 180 187 200 189 200 192 151 150 163 162 186 209 164 184 65 86 182 267 351 57 89 82 60 263 264 255 188 183 235 231 203 191 201 225 239 246 254 260 265 180 184 232 232 222 232 239 242 247 245 242 243 244 245 245
211 211 204 192 205 197 186 181 175 191 212 212 214 213 207 213 193 172 202 239 217 212 213 212 210 192 196 213 216 227 230 215 209 200 187 197 197 172 172 169 149 155 170 161 149 87 151 152 116 128 187 231 15 66 88 52 355 269 263 234 187 210 236 238 228 226 212 195 201 221 235 250 256 130 180 232 225 220 235 242 246 250 249 245 244 244 245 243